This demonstration page uses our WeatherBlox Daily Observations layout. Learn more.

Left ArrowRight Arrow

38.88101, -77.10428

Hourly Observations for January 14, 2017

Temp ( °F °C ) Dew Point ( °F °C ) Humidity (%) Winds ( mph kmh ) Pressure ( in mb ) Visibility ( mi km ) Precip ( " mm )
12:52 am 00:52 Cloudy with Light Rain 41 5 26 -3.3 55 55 NNE 8 13 30.68 1039 10 16 N/A
1:52 am 01:52 Cloudy with Light Rain 42 5.6 27 -2.8 55 55 E 8 13 30.67 1039 10 16 N/A
2:52 am 02:52 Cloudy with Light Rain 41 5 27 -2.8 57 57 ENE 6 9 30.67 1039 10 16 N/A
3:47 am 03:47 Cloudy 39 4 25 -4 56 56 NE 8 13 30.68 1039 4 6 0.01 0.25
3:52 am 03:52 Cloudy 38 3.3 26 -3.3 62 62 E 5 7 30.67 1039 6 10 0.02 0.51
4:03 am 04:03 Cloudy with Light Rain 39 4 27 -3 61 61 NNE 6 9 30.68 1039 10 16 N/A
4:52 am 04:52 Cloudy 38 3.3 28 -2.2 68 68 E 6 9 30.66 1038 10 16 N/A
5:52 am 05:52 Cloudy with Light Rain 38 3.3 28 -2.2 68 68 ENE 8 13 30.66 1038 10 16 N/A
6:52 am 06:52 Cloudy 37 2.8 24 -4.4 59 59 ESE 7 11 30.66 1038 10 16 0.01 0.25
7:52 am 07:52 Cloudy 36 2.2 24 -4.4 62 62 N N/A 30.66 1038 10 16 N/A
8:52 am 08:52 Cloudy with Light Rain 36 2.2 27 -2.8 70 70 ESE 3 6 30.66 1038 10 16 0.01 0.25
9:52 am 09:52 Cloudy with Light Rain 35 1.7 29 -1.7 78 78 E 5 7 30.66 1038 9 14 0.01 0.25
10:30 am 10:30 Cloudy with Light Rain 36 2 30 -1 81 81 SSE 6 9 30.65 1038 5 8 N/A
10:52 am 10:52 Cloudy with Light Rain 35 1.7 31 -0.6 85 85 SE 7 11 30.63 1037 5 8 0.01 0.25
10:55 am 10:55 Cloudy with Light Rain 35 1.7 32 undefined 89 89 S 7 11 30.65 1038 4 6 N/A
10:59 am 10:59 Cloudy with Light Rain 34 1.1 32 undefined 92 92 S 8 13 30.62 1037 6 10 N/A
11:20 am 11:20 Cloudy with Light Rain 34 1 30 -1 87 87 SSE 12 19 30.62 1037 10 16 N/A
11:37 am 11:37 Cloudy with Light Rain 34 1.1 30 -1.1 85 85 S 6 9 30.59 1036 10 16 N/A
11:52 am 11:52 Cloudy with Light Rain 34 1.1 30 -1.1 85 85 SSE 6 9 30.59 1036 10 16 N/A
12:00 pm 12:00 Cloudy with Light Rain 34 1 30 -1 87 87 SE 7 11 30.56 1035 10 16 N/A
12:45 pm 12:45 Cloudy with Light Rain 34 1.1 32 undefined 92 92 SSE 5 7 30.56 1035 4 6 0.01 0.25
12:52 pm 12:52 Cloudy with Light Rain 34 1.1 32 undefined 92 92 SSE 5 7 30.55 1034 3 5 0.01 0.25
12:56 pm 12:56 Cloudy with Light Rain 34 1 32 undefined 93 93 SSE 6 9 30.56 1035 3 4 N/A
1:01 pm 13:01 Cloudy with Light Rain 35 1.7 33 0.6 93 93 SSE 6 9 30.53 1034 3 5 0.01 0.25
1:05 pm 13:05 Cloudy with Light Rain 35 1.7 33 0.6 93 93 S 7 11 30.53 1034 4 6 0.01 0.25
1:15 pm 13:15 Cloudy with Light Rain 34 1.1 33 0.6 97 97 N N/A 30.53 1034 4 6 0.01 0.25
1:52 pm 13:52 Cloudy with Light Rain 35 1.7 33 0.6 93 93 N N/A 30.50 1033 8 13 0.02 0.51
2:10 pm 14:10 Cloudy with Light Rain 36 2 32 undefined 87 87 ESE 3 6 30.48 1032 10 16 N/A
2:15 pm 14:15 Cloudy 35 1.7 33 0.6 93 93 ESE 5 7 30.48 1032 10 16 N/A
2:39 pm 14:39 Cloudy 35 1.7 33 0.6 93 93 ESE 3 6 30.48 1032 10 16 N/A
2:43 pm 14:43 Cloudy 35 1.7 33 0.6 93 93 ESE 3 6 30.48 1032 10 16 N/A
2:52 pm 14:52 Cloudy 35 1.7 33 0.6 93 93 ESE 6 9 30.47 1032 10 16 N/A
3:15 pm 15:15 Cloudy 36 2.2 33 0.6 89 89 SE 5 7 30.48 1032 10 16 N/A
3:52 pm 15:52 Cloudy 35 1.7 33 0.6 93 93 ESE 3 6 30.46 1032 10 16 N/A
4:10 pm 16:10 Cloudy 36 2 34 1 93 93 SE 6 9 30.45 1031 10 16 N/A
4:44 pm 16:44 Cloudy with Light Rain 36 2 34 1 93 93 ESE 8 13 30.45 1031 4 6 N/A
4:52 pm 16:52 Cloudy with Light Rain 36 2.2 33 0.6 89 89 ESE 7 11 30.43 1031 5 8 0.02 0.51
5:09 pm 17:09 Cloudy with Light Rain 35 1.7 34 1.1 96 96 ESE 6 9 30.45 1031 6 10 0.02 0.51
5:52 pm 17:52 Cloudy with Light Rain 35 1.7 34 1.1 96 96 ESE 6 9 30.42 1030 5 8 0.08 2.03
6:03 pm 18:03 Cloudy with Light Rain 36 2 34 1 93 93 SE 6 9 30.42 1030 6 10 N/A
6:33 pm 18:33 Cloudy with Light Rain 35 1.7 34 1.1 96 96 E 5 7 30.42 1030 8 13 0.05 1.27
6:52 pm 18:52 Cloudy with Light Rain 35 1.7 34 1.1 96 96 ESE 5 7 30.40 1030 9 14 0.06 1.52
7:52 pm 19:52 Cloudy with Light Rain 35 1.7 34 1.1 96 96 E 3 6 30.39 1029 10 16 0.02 0.51
8:52 pm 20:52 Cloudy with Light Rain 36 2.2 34 1.1 93 93 N N/A 30.39 1029 8 13 0.02 0.51
9:18 pm 21:18 Cloudy with Light Rain 36 2 34 1 93 93 E 5 7 30.36 1028 10 16 N/A
9:37 pm 21:37 Cloudy 36 2.2 34 1.1 93 93 E 6 9 30.36 1028 10 16 N/A
9:52 pm 21:52 Cloudy 36 2.2 34 1.1 93 93 ESE 5 7 30.35 1028 10 16 N/A
10:36 pm 22:36 Cloudy 36 2 36 2 100 100 N 9 15 30.39 1029 10 16 N/A
10:52 pm 22:52 Cloudy 36 2.2 35 1.7 97 97 NE 7 11 30.37 1029 9 14 N/A
11:52 pm 23:52 Cloudy 36 2.2 34 1.1 93 93 SSE 3 6 30.34 1028 8 13 N/A

Powered by AerisWeather